Retour au catalogue

STARLINK-5133

ActifCommunicationsVLEO
NORAD 53980·PAYLOAD·🇺🇸 United States

Lancé Oct 5, 2022 depuis Vandenberg Space Force Base

Loading…

Prochains Passages (prochaines 24 heures)

TLE

FraisSource: CelesTrak SupGP

Époque: Sep 14, 2026, 22:12 UTC

1 53980C 22125S   26257.92548611  .00759200  00000+0  26239-1 0  2577
2 53980  53.1610  87.5809 0001265  80.0398 168.8059 15.28998812    13

Suivez STARLINK-5133 en temps réel avec AllMySat

Download on the App Store